Wind_Speed
7 8 8 9 8 6 5 6 6 8 9 9 11 13 13 13 13 12 12 12 10 10 10 10 10 10 9 8 6 5 5 4 3 3 3 3 4 5 5 5 6 6
10 8 8 7 6 6 6 6 7 8 9 9 11 12 13 13 13 13 13 12 11 10 10 10 11 10 10 8 7 6 5 4 4 4 5 5 5 5 6 6 6 6
9 7 6 5 6 6 6 6 8 9 9 9 10 11 11 12 13 13 13 13 11 11 11 11 11 11 10 9 8 7 6 5 5 6 6 6 6 6 7 7 7 7
6 5 4 4 6 7 6 6 8 9 9 10 11 11 11 12 13 13 13 13 12 11 12 12 12 12 11 11 9 8 7 7 7 7 7 7 7 7 7 8 8 8
5 4 4 5 6 6 6 6 7 8 9 10 11 11 12 12 12 13 12 12 12 12 12 13 13 13 12 12 11 10 9 8 8 8 8 8 8 8 8 9 9 9
5 5 5 6 5 6 7 8 8 8 9 10 11 10 11 12 12 12 12 12 12 12 13 14 14 14 13 13 12 11 11 10 10 10 10 10 10 10 10 10 10 10
6 6 6 6 5 6 7 9 9 8 7 9 9 9 10 12 12 12 12 13 13 13 14 14 14 14 14 14 13 13 13 12 11 11 12 11 11 11 11 11 11 11
6 6 6 7 6 6 8 9 8 8 7 8 9 9 9 10 12 12 12 13 13 13 14 14 14 14 14 15 15 15 14 14 13 13 13 13 13 12 12 12 12 12
5 6 6 6 6 7 8 9 8 8 8 9 9 10 10 10 12 12 12 13 14 14 14 15 15 15 15 16 16 16 16 15 15 14 14 15 14 14 13 13 13 13
6 7 7 7 7 8 8 8 8 8 9 9 9 11 11 11 11 12 12 13 14 14 14 15 15 16 17 17 17 18 17 16 16 16 16 16 16 16 15 15 15 14
8 9 9 9 9 10 10 9 9 9 9 9 9 11 12 12 12 12 13 13 14 15 15 16 16 17 17 18 18 19 18 17 17 18 18 18 18 17 17 16 16 15
8 9 10 11 11 12 12 12 12 12 12 10 10 11 12 12 13 13 13 14 14 15 16 17 18 18 19 19 19 19 19 19 19 19 19 19 19 19 18 17 17 17
7 8 10 11 10 11 12 13 14 15 15 13 13 13 12 12 14 14 15 15 15 15 17 19 19 20 20 20 20 20 20 20 20 20 20 20 20 20 19 19 19 18
4 6 8 9 9 9 10 11 12 13 14 14 15 15 14 14 14 16 17 17 16 16 17 19 20 21 21 21 22 22 22 21 21 20 21 21 21 20 20 20 20 19
1 3 4 5 6 7 7 9 10 11 12 13 14 15 15 16 16 17 17 17 17 16 17 19 19 20 21 21 22 23 23 22 21 20 21 21 21 21 21 21 21 20
1 1 2 3 3 4 5 6 7 8 10 11 12 13 14 16 16 17 17 18 18 18 18 18 17 18 20 22 23 23 23 23 22 21 21 21 21 22 22 22 22 21
2 2 3 3 3 3 3 4 5 6 7 8 9 11 12 14 15 16 17 17 19 20 19 18 17 19 22 23 23 23 24 24 23 22 21 21 22 22 23 23 22 22
6 6 6 6 6 6 5 5 5 6 7 7 7 8 10 12 14 15 16 17 19 20 19 18 19 21 23 23 22 23 23 23 23 22 22 22 22 22 23 23 23 23
9 9 9 9 9 9 8 8 7 8 8 8 8 8 9 10 11 13 15 16 18 19 18 18 20 22 24 24 23 23 23 23 23 23 24 24 23 23 23 23 24 24
12 12 12 12 12 12 12 12 11 11 11 11 11 11 11 11 11 12 13 15 17 18 17 19 21 23 24 24 24 24 25 25 25 25 25 25 24 24 24 25 25 25
15 15 15 16 16 16 15 15 15 15 15 15 14 14 14 13 13 13 13 14 15 16 17 19 21 22 22 23 24 25 26 26 27 27 27 26 25 25 26 27 27 27
17 17 18 18 18 18 18 18 18 18 18 18 18 18 17 17 16 16 16 15 15 15 16 18 19 19 20 21 23 25 26 27 29 28 27 27 27 27 28 28 28 28
19 19 19 20 20 20 21 21 21 21 21 21 21 21 21 20 20 19 18 18 17 16 16 17 17 18 20 21 22 24 26 27 28 28 28 28 28 28 29 30 30 30
21 21 22 22 22 22 23 23 23 23 23 23 24 23 23 23 23 22 22 20 19 18 18 18 18 18 20 22 23 25 27 28 28 28 27 28 28 29 30 31 31 31
21 22 23 23 24 24 24 25 25 25 25 25 25 25 25 25 25 25 24 23 22 21 21 21 19 19 21 21 23 25 27 28 28 28 26 26 26 28 29 29 31 33
19 20 21 22 23 24 24 25 26 26 26 26 27 27 27 27 27 27 26 26 25 24 24 23 22 21 22 22 22 24 25 27 29 28 27 26 26 26 27 27 29 31
Wind_Direction
211 231 231 235 237 222 217 220 220 228 227 226 232 232 228 228 228 225 223 222 218 217 214 209 211 212 211 209 199 193 194 201 220 233 246 264 278 287 291 293 296 297
188 211 220 225 239 232 222 221 223 230 232 232 234 233 229 228 230 230 226 222 219 220 219 214 213 213 212 215 211 207 209 214 229 244 254 263 271 280 285 286 290 296
184 202 210 214 235 235 227 225 227 231 231 233 237 236 231 230 232 232 229 228 223 221 222 219 218 216 214 217 217 217 221 225 233 247 257 265 270 274 280 283 285 291
202 213 208 208 225 231 229 229 231 233 232 233 235 233 230 229 230 231 232 233 230 226 225 223 223 221 216 218 221 221 224 230 235 246 255 261 266 269 274 278 281 286
232 227 224 219 221 230 238 240 237 232 230 232 233 232 232 233 232 233 236 237 235 233 230 229 228 227 222 221 224 227 229 232 237 245 253 257 261 266 268 271 274 276
236 226 233 234 226 227 234 239 237 230 226 230 233 232 234 238 237 236 239 239 237 235 234 234 233 232 229 227 229 232 233 235 238 244 252 256 259 262 264 265 268 272
233 229 236 243 240 234 234 239 240 235 236 242 243 238 236 241 243 240 241 239 237 237 237 238 237 236 236 235 235 236 237 238 240 244 251 256 259 261 264 267 268 271
241 240 247 253 252 248 245 248 249 245 248 251 252 249 244 244 244 242 243 241 238 238 239 240 241 242 243 243 242 242 242 242 243 245 250 254 257 259 262 266 268 270
232 233 248 260 260 256 252 254 259 258 253 251 253 254 250 246 245 241 242 243 240 237 238 241 244 246 248 248 248 248 248 248 248 249 250 252 255 256 257 261 264 267
231 236 248 258 262 261 260 261 268 267 258 252 254 256 253 251 250 246 243 243 242 238 238 241 244 248 250 250 250 251 251 251 252 251 251 252 254 255 255 258 261 263
247 256 259 259 260 260 259 259 262 267 264 257 256 258 258 258 255 253 249 246 246 243 240 240 241 246 249 250 250 251 252 252 252 252 252 252 253 255 256 258 261 263
249 259 263 263 262 263 262 261 262 265 266 263 260 259 260 260 258 256 253 249 249 249 247 246 244 244 247 249 251 252 253 253 252 252 253 252 253 255 258 260 262 264
245 251 259 263 266 268 267 265 263 263 262 261 260 258 258 258 257 256 253 249 247 248 252 253 251 249 248 249 250 252 253 253 253 254 255 255 256 257 259 262 264 266
249 249 256 264 271 274 273 269 265 264 262 259 257 256 254 251 252 254 255 253 247 245 249 253 254 254 254 252 251 252 253 253 254 255 258 259 260 261 262 264 265 267
269 260 260 266 272 277 279 277 274 271 268 265 263 261 258 254 251 251 254 255 253 249 247 251 256 259 261 260 258 257 257 257 256 256 258 260 262 263 264 265 267 268
7 329 302 294 289 286 286 285 283 279 275 273 271 269 268 266 262 258 256 255 257 255 251 253 257 260 260 261 261 261 261 261 259 258 258 260 262 263 264 265 266 268
308 315 314 316 313 310 306 299 295 292 287 283 279 274 272 271 268 265 262 259 258 258 256 255 255 254 254 254 255 259 261 262 262 261 262 261 262 263 265 266 267 268
286 292 294 297 300 299 300 300 300 300 301 300 296 288 281 276 273 270 269 265 261 260 259 257 253 252 252 253 254 257 260 263 263 262 262 263 262 263 265 267 268 270
280 284 284 286 288 288 288 289 288 290 295 299 302 301 295 289 283 278 275 272 268 265 262 259 256 253 252 252 253 255 257 260 260 258 257 258 259 261 262 265 269 271
275 278 280 282 282 282 283 283 284 284 286 289 293 295 295 294 291 286 281 277 274 272 267 261 257 255 254 254 254 255 258 260 260 258 257 258 259 260 262 265 267 268
272 273 276 278 279 280 280 280 281 281 282 283 284 285 287 288 288 287 285 282 279 276 272 265 260 258 259 260 258 258 260 261 262 261 260 261 262 263 265 266 267 269
271 271 273 274 275 277 278 278 278 278 279 280 280 281 281 281 282 282 282 282 281 279 276 273 270 267 265 264 263 262 261 261 263 263 262 262 262 263 265 265 266 268
271 271 271 271 272 272 273 275 276 276 277 278 278 279 279 278 278 277 276 277 279 280 279 277 275 271 267 264 263 263 262 262 262 263 262 262 262 263 265 265 266 266
271 271 271 271 271 270 271 271 272 273 273 274 274 275 275 275 275 275 275 274 274 274 273 271 270 267 265 262 260 260 262 263 263 263 262 263 264 264 265 266 267 267
272 272 271 270 270 269 269 269 269 270 270 271 271 271 271 271 271 271 272 272 272 270 269 268 268 266 265 264 260 259 261 262 263 264 263 264 264 264 264 266 267 268
273 273 273 272 271 269 268 267 267 267 267 267 267 268 268 268 268 268 268 268 268 268 267 268 267 265 265 264 262 260 259 260 262 263 263 262 263 263 265 265 267 270
Height
5891 5891 5892 5893 5893 5893 5892 5893 5893 5894 5895 5896 5898 5899 5900 5901 5901 5901 5901 5902 5902 5903 5904 5905 5906 5908 5909 5910 5911 5912 5913 5914 5915 5915 5916 5916 5916 5916 5917 5917 5918 5918
5892 5891 5891 5891 5891 5892 5892 5892 5893 5894 5894 5895 5897 5898 5899 5899 5899 5900 5901 5901 5901 5902 5903 5904 5905 5907 5908 5910 5911 5912 5913 5914 5914 5915 5915 5915 5916 5916 5916 5917 5917 5917
5889 5890 5890 5889 5890 5891 5892 5892 5893 5894 5894 5894 5895 5897 5897 5898 5899 5900 5900 5900 5900 5901 5902 5903 5905 5906 5907 5908 5910 5911 5912 5913 5913 5914 5914 5915 5915 5916 5916 5916 5917 5917
5886 5887 5887 5888 5889 5891 5892 5892 5893 5893 5894 5894 5895 5896 5896 5897 5898 5899 5899 5899 5899 5900 5901 5902 5904 5905 5906 5907 5908 5910 5911 5911 5912 5913 5913 5914 5914 5915 5915 5916 5916 5916
5884 5885 5886 5888 5889 5890 5891 5892 5892 5892 5893 5895 5895 5896 5896 5896 5897 5898 5898 5898 5898 5899 5900 5901 5903 5904 5904 5906 5907 5908 5909 5910 5911 5912 5912 5913 5913 5914 5914 5915 5915 5915
5884 5885 5886 5887 5888 5889 5891 5891 5892 5892 5893 5894 5894 5894 5895 5895 5896 5896 5896 5897 5898 5899 5899 5900 5902 5903 5904 5905 5905 5907 5908 5909 5910 5910 5911 5911 5912 5913 5913 5913 5914 5914
5884 5885 5886 5887 5887 5889 5890 5891 5891 5891 5892 5893 5893 5893 5893 5894 5894 5895 5895 5896 5897 5898 5898 5899 5900 5902 5903 5904 5904 5905 5906 5907 5908 5908 5909 5910 5911 5911 5912 5912 5913 5913
5884 5884 5885 5885 5886 5887 5889 5889 5889 5890 5890 5891 5891 5891 5892 5892 5893 5893 5894 5895 5895 5896 5897 5898 5900 5901 5902 5902 5903 5904 5904 5905 5906 5907 5908 5908 5909 5910 5910 5911 5911 5911
5883 5884 5884 5884 5885 5886 5887 5888 5888 5888 5889 5889 5889 5890 5890 5891 5891 5892 5893 5894 5894 5895 5896 5897 5898 5899 5900 5901 5902 5903 5903 5904 5905 5906 5906 5907 5908 5908 5909 5909 5909 5910
5882 5883 5883 5884 5885 5886 5886 5887 5886 5887 5888 5888 5888 5889 5890 5890 5890 5891 5892 5893 5893 5894 5894 5896 5897 5898 5899 5900 5901 5901 5902 5902 5903 5904 5905 5905 5906 5906 5907 5907 5908 5908
5881 5881 5882 5882 5883 5884 5885 5885 5885 5886 5887 5887 5887 5888 5889 5889 5890 5890 5891 5892 5892 5893 5894 5894 5895 5896 5897 5898 5899 5899 5900 5901 5902 5902 5903 5903 5904 5904 5905 5906 5906 5906
5879 5880 5880 5881 5882 5883 5884 5884 5884 5885 5885 5886 5886 5887 5888 5889 5889 5889 5890 5891 5891 5892 5893 5893 5894 5894 5895 5896 5896 5897 5897 5899 5900 5900 5901 5902 5902 5903 5903 5904 5904 5905
5878 5879 5879 5880 5881 5881 5882 5882 5883 5883 5884 5884 5885 5886 5887 5887 5887 5887 5888 5889 5889 5890 5891 5892 5892 5893 5893 5893 5894 5894 5895 5896 5897 5898 5899 5900 5900 5901 5901 5902 5902 5903
5878 5878 5878 5879 5879 5880 5880 5880 5881 5881 5882 5882 5883 5884 5884 5885 5885 5885 5886 5886 5887 5887 5888 5889 5889 5890 5892 5892 5892 5892 5893 5894 5895 5896 5897 5898 5898 5899 5900 5900 5901 5901
5877 5878 5878 5878 5878 5878 5878 5879 5879 5880 5880 5880 5881 5881 5882 5882 5883 5883 5883 5884 5884 5884 5884 5885 5887 5889 5891 5892 5892 5891 5892 5892 5893 5893 5894 5895 5896 5897 5897 5898 5898 5899
5877 5877 5877 5877 5877 5877 5878 5878 5878 5878 5878 5879 5879 5879 5879 5879 5880 5881 5881 5882 5882 5882 5882 5883 5886 5888 5889 5890 5890 5890 5890 5890 5890 5891 5891 5892 5893 5894 5895 5895 5896 5896
5876 5876 5876 5876 5876 5877 5877 5877 5877 5877 5877 5877 5878 5878 5877 5877 5877 5878 5878 5879 5879 5880 5881 5882 5884 5885 5885 5885 5887 5887 5887 5888 5888 5888 5889 5889 5890 5891 5892 5892 5893 5894
5875 5875 5875 5875 5875 5876 5876 5876 5876 5876 5876 5876 5876 5876 5876 5875 5875 5875 5875 5876 5877 5878 5879 5880 5881 5881 5881 5882 5883 5884 5885 5885 5886 5886 5886 5887 5887 5888 5888 5889 5890 5891
5874 5874 5874 5874 5874 5874 5875 5875 5875 5875 5875 5875 5875 5875 5875 5874 5873 5873 5873 5874 5874 5875 5877 5878 5877 5877 5878 5879 5880 5881 5882 5883 5883 5883 5883 5884 5884 5884 5885 5886 5888 5888
5872 5872 5872 5872 5872 5873 5873 5873 5873 5874 5874 5874 5874 5874 5873 5873 5872 5872 5872 5872 5872 5873 5874 5875 5874 5874 5875 5876 5877 5878 5879 5880 5880 5880 5880 5881 5881 5882 5883 5884 5885 5885
5870 5870 5870 5870 5870 5870 5871 5871 5871 5871 5871 5872 5872 5872 5872 5871 5871 5870 5870 5870 5870 5870 5870 5871 5871 5872 5873 5874 5875 5875 5876 5876 5876 5877 5878 5878 5879 5880 5881 5881 5881 5881
5868 5868 5868 5868 5868 5868 5868 5868 5868 5869 5869 5869 5869 5869 5869 5869 5869 5869 5868 5868 5868 5868 5868 5868 5868 5869 5870 5870 5871 5871 5872 5872 5872 5873 5874 5875 5875 5876 5876 5876 5877 5877
5865 5865 5865 5865 5865 5865 5865 5865 5865 5866 5866 5866 5866 5866 5866 5866 5866 5866 5866 5866 5866 5866 5866 5865 5865 5865 5865 5865 5866 5866 5867 5867 5868 5869 5870 5870 5871 5872 5872 5872 5872 5873
5861 5862 5862 5862 5862 5862 5862 5862 5862 5862 5863 5863 5862 5862 5862 5862 5862 5862 5862 5863 5863 5863 5863 5862 5862 5862 5861 5862 5862 5862 5862 5863 5863 5864 5865 5866 5867 5867 5868 5867 5867 5868
5858 5858 5858 5858 5858 5858 5858 5858 5858 5858 5859 5859 5858 5858 5858 5858 5858 5858 5858 5859 5859 5859 5859 5859 5859 5859 5859 5859 5859 5859 5859 5859 5859 5860 5861 5862 5862 5863 5863 5863 5863 5863
5855 5855 5855 5854 5854 5854 5854 5854 5854 5854 5854 5854 5854 5854 5854 5854 5854 5854 5854 5854 5855 5855 5855 5855 5856 5856 5855 5855 5856 5856 5856 5856 5855 5856 5857 5858 5858 5858 5858 5859 5859 5858